Orbital Elements at Epoch 2459200.5 (2020-Dec-17.0) TDB
Reference: JPL 16 (heliocentric ecliptic J2000)
Element | Value | Uncertainty (1-sigma) | Units |
e | .2071894030992482 | 4.5185e-08 | |
a | 2.557748164067671 | 2.1575e-08 | au |
q | 2.027809848676292 | 1.2076e-07 | au |
i | 27.5632232909511 | 1.3933e-05 | deg |
node | 337.640489387468 | 1.1478e-05 | deg |
peri | 255.0690040503264 | 4.3502e-05 | deg |
M | 356.1724691805398 | 4.5903e-05 | deg |
tp | 2459216.385514848750 (2021-Jan-01.88551485) | 0.00019064 | TDB |
period | 1494.118693042082 4.09 | 1.8904e-05 5.176e-08 | d yr |
n | .2409447132121922 | 3.0486e-09 | deg/d |
Q | 3.08768647945905 | 2.6045e-08 | au |
|
| | Orbit Determination Parameters
Additional Information
|